Flag for India Weather past 2 weeks in Kolkata, West Bengal, India

Now
84 °F

Broken clouds.


Feels Like: 98 °F
Forecast: 83 / 90 °F
Wind: 7 mph from South

Location: Calcutta / Dum Dum

Current Time: Aug 29, 2015 at 6:12:32 PM

Latest Report: Aug 29, 2015 at 5:50 PM


Visibility: 2 mi

Pressure: 29.53 "Hg

Humidity: 89%

Dew point: 81 °F

Location of KolkataLocation

Historic Weather in Kolkata — Graph

°F

Kolkata temperature yesterday

Maximum temperature yesterday: 90 °F (at 12:50 PM)
Minimum temperature yesterday: 81 °F (at 5:50 AM)
Average temperature yesterday: 85 °F

Past Weeks' High & Low Weather Summary

 TemperatureHumidityPressure
High95 °F (Aug 24, 2:20 PM)100% (Aug 29, 2:50 AM)29.71 "Hg (Aug 29, 2:50 AM)
Low79 °F (Aug 21, 6:20 PM)56% (Aug 22, 2:50 PM)29.47 "Hg (Aug 22, 2:50 PM)
Average86 °F85%29.60 "Hg
* Reported Aug 14 4:50 PM — Aug 29 4:50 PM, Kolkata, Weather by CustomWeather, © 2015

Note: Actual official high and low records may vary slightly from our data, if they occured in-between our weather recording intervals... More about our weather records

Advertising

Kolkata weather history for previous 24 hours

 ConditionsComfort  
Time TempWeatherWind HumidityBarometerVisibility
4:50 PM
Sat, Aug 29
84 °FBroken clouds.7 mph89%29.53 "Hg2 mi
4:20 PM84 °FBroken clouds.7 mph89%29.53 "Hg2 mi
3:20 PM84 °FBroken clouds.9 mph89%29.53 "Hg2 mi
2:50 PM86 °FBroken clouds.10 mph89%29.56 "Hg2 mi
2:20 PM86 °FBroken clouds.12 mph89%29.56 "Hg2 mi
1:20 PM84 °FBroken clouds.9 mph94%29.56 "Hg2 mi
12:50 PM84 °FBroken clouds.7 mph94%29.56 "Hg2 mi
12:20 PM84 °FBroken clouds.8 mph94%29.59 "Hg2 mi
11:20 AM86 °FLight rain. Broken clouds.10 mph89%29.62 "Hg2 mi
10:50 AM88 °FBroken clouds.10 mph79%29.62 "Hg2 mi
10:20 AM88 °FBroken clouds.9 mph79%29.62 "Hg2 mi
9:50 AM88 °FBroken clouds.9 mph79%29.62 "Hg2 mi
9:20 AM86 °FBroken clouds.9 mph84%29.62 "Hg2 mi
8:20 AM86 °FBroken clouds.9 mph84%29.59 "Hg2 mi
7:50 AM84 °FBroken clouds.9 mph89%29.59 "Hg2 mi
7:20 AM82 °FScattered clouds.7 mph89%29.59 "Hg2 mi
6:50 AM82 °FBroken clouds.7 mph89%29.59 "Hg2 mi
6:20 AM82 °FBroken clouds.7 mph89%29.59 "Hg1 mi
5:50 AM82 °FBroken clouds.6 mph89%29.56 "Hg1 mi
5:20 AM82 °FPartly cloudy.5 mph89%29.56 "Hg1 mi
4:50 AM82 °FPartly cloudy.5 mph89%29.56 "Hg1 mi
4:20 AM81 °FThunderstorms. Partly cloudy.7 mph94%29.56 "Hg1 mi
3:20 AM81 °FHeavy rain. Mostly cloudy.15 mph94%29.56 "Hg1 mi
2:50 AM82 °FRain. Partly cloudy.8 mph100%29.53 "Hg1 mi
2:20 AM82 °FPassing clouds.8 mph94%29.56 "Hg2 mi
1:50 AM82 °FPassing clouds.8 mph94%29.56 "Hg2 mi
1:20 AM84 °FPassing clouds.8 mph94%29.56 "Hg2 mi
12:50 AM84 °FPassing clouds.6 mph89%29.59 "Hg2 mi
12:20 AM84 °FHaze.7 mph89%29.59 "Hg2 mi
11:50 PM
Fri, Aug 28
84 °FPassing clouds.6 mph89%29.59 "Hg2 mi
11:20 PM84 °FPassing clouds.5 mph89%29.59 "Hg2 mi
10:50 PM84 °FPassing clouds.7 mph89%29.59 "Hg2 mi
10:20 PM84 °FPassing clouds.6 mph89%29.59 "Hg2 mi
9:50 PM84 °FPassing clouds.6 mph89%29.59 "Hg2 mi
9:20 PM84 °FPassing clouds.7 mph89%29.59 "Hg2 mi
8:50 PM84 °FPassing clouds.6 mph89%29.59 "Hg2 mi
8:20 PM86 °FPassing clouds.8 mph89%29.59 "Hg2 mi
7:50 PM86 °FPassing clouds.7 mph89%29.56 "Hg2 mi
7:20 PM86 °FPassing clouds.8 mph89%29.56 "Hg2 mi
6:50 PM86 °FPartly cloudy.7 mph89%29.53 "Hg2 mi
6:20 PM86 °FBroken clouds.7 mph89%29.53 "Hg2 mi
Weather by CustomWeather, © 2015

See weather overviewHow to use our weather pages